Location: Bessat
(45.8735°N, 1.9924°E)
Time: 17:21:00
(UTC+00:00)

Meteor 1-18 Rocket - Pass Details

Date: 11 May 2021
Orbit: 837 x 909 km, 81.2° (Epoch: 21 June)

Event Time Altitude Azimuth Distance (km) Brightness Sun altitude
Exits shadow 23:16:07 57° 228° (SW) 1,003 4.3 -25.6°
Maximum altitude 23:17:07 69° 283° (WNW) 911 4.3 -25.6°
Drops below altitude 10° 23:22:43 10° 7° (N) 2,474 7.6 -25.7°
Sets 23:25:08 0° 9° (N) 3,408 8.6 -25.8°
